Station LWSD1 - 8557380 - Lewes, DE Image indicating link to RSS feed of recent meteorological observations for station LWSD1


Conditions at LWSD1 as of
(3:48 am EDT)
0748 GMT on 05/29/2024:
     

Click on the graph icon in the table below to see a time series plot of the last five days of that observation.

5-day plot - Wind Direction Wind Direction (WDIR):WNW ( 290 deg true )
5-day plot - Wind Speed Wind Speed (WSPD): 7.0 kts
5-day plot - Wind Gust Wind Gust (GST): 7.0 kts
5-day plot - Atmospheric Pressure Atmospheric Pressure (PRES):29.90 in
5-day plot - Air Temperature Air Temperature (ATMP): 66.9 °F
5-day plot - Water Temperature Water Temperature (WTMP): 66.6 °F
5-day plot - Wind Speed at 10 Meters Wind Speed at 10 meters (WSPD10M): 7.8 kts
5-day plot - Wind Speed at 20 Meters Wind Speed at 20 meters (WSPD20M): 7.8 kts
5-day plot -  Wind Speed, Wind Gust and Atmospheric Pressure Combined plot of Wind Speed, Gust, and Air Pressure
NOS Water Level Observation Network Water Level
Previous observations
TIME
(EDT)
5-day plot - Wind Direction
WDIR
 
5-day plot - Wind Speed
WSPD
kts
5-day plot - Wind Gust
GST
kts
5-day plot - Wave Height
WVHT
ft
5-day plot - Dominant Wave Period
DPD
sec
5-day plot - Average Wave Period
APD
sec
5-day plot - Mean Wave Direction
MWD
 
5-day plot - Atmospheric Pressure
PRES
in
5-day plot - Pressure Tendency
PTDY
in
5-day plot - Air Temperature
ATMP
°F
5-day plot - Water Temperature
WTMP
°F
5-day plot - Dew Point
DEWP
°F
5-day plot - Salinity
SAL
psu
5-day plot - Visibility
VIS
nmi
5-day plot - Tide (above MLLW)
TIDE
ft
2024-05-29 03:42 amWNW 6.0 7.0----29.90- 67.1 66.4----
2024-05-29 03:36 am W 6.0 6.0----29.90- 66.9 66.0----
2024-05-29 03:30 am W 6.0 7.0----29.90- 67.1 65.8----
2024-05-29 03:24 amWNW 6.0 7.0----29.90- 67.6 65.7----
2024-05-29 03:18 amWNW 6.0 7.0----29.90- 67.8 65.5----
2024-05-29 03:12 amWNW 6.0 6.0----29.90- 67.8 65.7----
2024-05-29 03:06 amWNW 4.1 5.1----29.90- 67.5 65.8----
2024-05-29 03:00 amWNW 4.1 5.1----29.90+0.01 67.6 65.7----
2024-05-29 02:54 amWNW 5.1 6.0----29.90- 68.2 65.8----
2024-05-29 02:48 amWNW 5.1 6.0----29.91- 68.4 65.7----
2024-05-29 02:42 am NW 5.1 6.0----29.90- 68.4 65.8----
2024-05-29 02:36 am NW 6.0 6.0----29.90- 68.2 66.0----
2024-05-29 02:30 am NW 5.1 7.0----29.90- 67.8 66.4----
2024-05-29 02:24 am NW 6.0 7.0----29.90- 68.0 66.9----
2024-05-29 02:18 am NW 6.0 8.0----29.90- 68.0 66.7----
2024-05-29 02:12 am NW 7.0 8.9----29.90- 68.2 67.5----
2024-05-29 02:06 am NW 8.0 8.9----29.90- 68.7 67.6----
2024-05-29 02:00 amWNW 7.0 8.0----29.90+0.01 68.7 67.8----
2024-05-29 01:54 am NW 8.0 8.9----29.90- 69.1 67.8----
2024-05-29 01:48 amWNW 7.0 8.9----29.90- 68.9 67.8----
2024-05-29 01:42 amWNW 7.0 8.9----29.90- 68.7 67.8----
2024-05-29 01:36 am W 6.0 8.0----29.89- 68.4 67.6----
2024-05-29 01:30 amWNW 7.0 8.9----29.89- 68.9 67.6----
2024-05-29 01:24 am W 6.0 7.0----29.89- 68.5 67.6----
2024-05-29 01:18 am W 5.1 6.0----29.89- 68.4 67.6----
2024-05-29 01:12 am W 5.1 7.0----29.89- 68.4 67.6----
2024-05-29 01:06 amWNW 6.0 7.0----29.88- 69.4 67.6----
2024-05-29 01:00 am--------- 69.4 67.6----
2024-05-29 12:54 am--------- 69.6 67.6----
2024-05-29 12:48 am W 6.0 8.0----29.89- 69.6-----
2024-05-29 12:42 am W 7.0 8.9----29.89- 69.6-----
2024-05-29 12:36 amWNW 8.0 9.9----29.89- 69.6-----
2024-05-29 12:30 amWNW 8.9 9.9----29.89- 69.8 67.6----
2024-05-29 12:24 am W 8.0 8.9----29.89- 70.0 67.6----
2024-05-29 12:18 am W 8.0 8.9----29.88- 70.2 67.6----
2024-05-29 12:12 am W 8.0 9.9----29.88- 70.3 67.6----
2024-05-29 12:06 am W 7.0 8.9----29.88- 70.5 67.6----
2024-05-29 12:00 am W 8.0 9.9----29.88+0.02 71.1 67.6----
2024-05-28 11:54 pm W 8.9 12.0----29.89- 71.4 67.6----
2024-05-28 11:48 pm W 8.0 11.1----29.88- 71.8 67.6----
2024-05-28 11:42 pm W 7.0 8.9----29.88- 72.0 67.5----
2024-05-28 11:36 pm W 7.0 11.1----29.88- 72.0 67.5----
2024-05-28 11:30 pmWSW 7.0 8.9----29.88- 72.0 67.5----
2024-05-28 11:24 pmWSW 6.0 8.9----29.88- 71.8 67.3----
2024-05-28 11:18 pmWSW 5.1 7.0----29.88- 72.0 67.3----
2024-05-28 11:12 pmWSW 5.1 7.0----29.88- 72.0 67.3----
2024-05-28 11:06 pm SW 6.0 7.0----29.88- 72.1 67.1----
2024-05-28 11:00 pm SW 4.1 6.0----29.89+0.05 72.1 67.1----
2024-05-28 10:54 pm SW 5.1 7.0----29.89- 72.3 67.1----
2024-05-28 10:48 pmWSW 5.1 8.0----29.88- 72.7 67.1----
2024-05-28 10:42 pmWSW 5.1 7.0----29.88- 73.0 67.1----
2024-05-28 10:36 pmWSW 5.1 6.0----29.88- 72.9 67.1----
2024-05-28 10:30 pmWSW 5.1 6.0----29.88- 73.2 67.1----
2024-05-28 10:24 pm SW 4.1 6.0----29.88- 73.2 67.1----
2024-05-28 10:18 pm SW 4.1 7.0----29.88- 73.4 67.1----
2024-05-28 10:12 pm SW 6.0 8.9----29.88- 73.8 67.1----
2024-05-28 10:06 pmWSW 5.1 6.0----29.88- 73.6 67.1----
2024-05-28 10:00 pm SW 4.1 8.9----29.88+0.05 73.9 67.1----
2024-05-28 09:54 pmWSW 6.0 7.0----29.88- 74.3 67.1----
2024-05-28 09:48 pmWSW 5.1 6.0----29.88- 74.1 67.1----
2024-05-28 09:42 pmWSW 5.1 6.0----29.87- 74.7 67.1----
2024-05-28 09:36 pmWSW 5.1 6.0----29.87- 74.7 66.9----
2024-05-28 09:30 pmWSW 4.1 9.9----29.86- 75.0 66.9----
2024-05-28 09:24 pmWSW 4.1 7.0----29.86- 75.0 66.9----
2024-05-28 09:18 pmWSW 4.1 7.0----29.86- 75.0 66.9----
2024-05-28 09:12 pmWSW 5.1 8.0----29.86- 75.4 66.9----
2024-05-28 09:06 pmWSW 5.1 7.0----29.86- 75.4 66.7----
2024-05-28 09:00 pmWSW 5.1 7.0----29.86+0.05 75.4 66.7----
2024-05-28 08:54 pmWSW 5.1 6.0----29.86- 75.9 66.7----
2024-05-28 08:48 pm W 5.1 7.0----29.85- 76.5 66.7----
2024-05-28 08:42 pm W 5.1 7.0----29.85- 76.5 66.7----
2024-05-28 08:36 pm W 5.1 7.0----29.85- 76.6 66.6----
2024-05-28 08:30 pmWSW 5.1 6.0----29.85- 77.0 66.6----
2024-05-28 08:24 pmWSW 4.1 5.1----29.84- 77.7 66.7----
2024-05-28 08:18 pmWSW 4.1 4.1----29.84- 77.7 66.9----
2024-05-28 08:12 pm W 2.9 7.0----29.84- 78.1 66.9----
2024-05-28 08:06 pm W 6.0 7.0----29.84- 78.4 67.3----
2024-05-28 08:00 pm W 6.0 8.9----29.84+0.02 78.6 67.5----
2024-05-28 07:54 pm W 6.0 11.1----29.84- 78.8 67.6----
2024-05-28 07:48 pm W 8.0 12.0----29.84- 79.2 67.6----
2024-05-28 07:42 pm W 7.0 9.9----29.83- 79.2 67.3----
2024-05-28 07:36 pm W 8.0 11.1----29.83- 79.5 67.1----
2024-05-28 07:30 pm W 8.9 15.0----29.83- 80.2 67.1----
2024-05-28 07:24 pmWNW 7.0 17.1----29.83- 80.4 67.1----
2024-05-28 07:00 pm W 13.0 19.0----29.82+0.00 80.4 67.1----
2024-05-28 06:54 pm W 15.0 20.0----29.82- 80.8 67.1----
2024-05-28 06:48 pm W 12.0 17.1----29.82- 80.6 67.3----
2024-05-28 06:42 pm W 12.0 17.1----29.82- 80.8 67.3----
2024-05-28 06:36 pm W 15.9 19.0----29.82- 80.6 67.1----
2024-05-28 06:30 pm-------29.81-- 67.1----
2024-05-28 06:24 pm-------29.81-- 67.1----
2024-05-28 06:18 pm W 12.0 17.1----29.81- 81.3 67.1----
2024-05-28 06:12 pm W 12.0 17.1----29.81- 81.3 67.1----
2024-05-28 06:06 pm W 13.0 17.1----29.81- 81.1 67.1----
2024-05-28 06:00 pm W 13.0 17.1----29.81-0.02- 67.1----
2024-05-28 05:54 pmWNW 14.0 17.1----29.81-- 67.1----
2024-05-28 05:48 pm W 12.0 17.1----29.81-- 67.1----
2024-05-28 05:42 pm W 11.1 19.0----29.81-- 66.9----
2024-05-28 05:36 pmWNW 14.0 18.1----29.81-- 66.9----
2024-05-28 05:30 pmWNW 15.0 19.0------------
2024-05-28 05:24 pmWNW 14.0 18.1------------
2024-05-28 05:18 pm W 15.0 19.0----29.82-- 67.1----
2024-05-28 05:12 pm W 15.9 21.0----29.82-- 67.1----
2024-05-28 05:06 pm W 13.0 19.0----29.81-- 67.1----
2024-05-28 05:00 pm W 14.0 17.1----29.82-0.03- 67.1----
2024-05-28 04:54 pm W 15.9 19.0----29.82-- 67.3----
2024-05-28 04:48 pm W 13.0 20.0----29.82-- 67.3----
2024-05-28 04:42 pm W 11.1 14.0----29.82-- 67.5----
2024-05-28 04:36 pm W 12.0 15.9----29.83-- 67.3----
2024-05-28 04:30 pm W 9.9 15.9------------
2024-05-28 04:24 pm W 12.0 17.1------------
2024-05-28 04:18 pm W 12.0 15.9----29.83-- 67.3----
2024-05-28 04:12 pm W 7.0 15.0----29.83-- 67.3----
2024-05-28 04:06 pm W 12.0 18.1----29.83-- 67.3----
2024-05-28 04:00 pm W 11.1 20.0----29.83-0.03 80.1 67.3----
2024-05-28 03:54 pm W 9.9 20.0----29.83- 78.8 67.3----
2024-05-28 03:48 pm W 12.0 20.0----29.83- 79.3 67.5----
2024-05-28 03:42 pmWNW 14.0 18.1----29.83- 78.6 67.5----
2024-05-28 03:36 pm W 14.0 17.1----29.83- 79.5 67.5----
2024-05-28 03:30 pm W 12.0 18.1----29.83- 80.4 67.6----
2024-05-28 03:24 pmWNW 11.1 14.0----29.83- 78.6 67.8----
2024-05-28 03:18 pm W 13.0 17.1----29.83- 79.0 67.1----
2024-05-28 03:12 pm W 13.0 19.0----29.83- 79.3 66.9----
2024-05-28 03:06 pm W 15.9 19.0----29.83- 79.0 66.4----
2024-05-28 03:00 pmWNW 12.0 22.0----29.83-0.03 77.7 66.4----
2024-05-28 02:54 pm W 7.0 14.0----29.83- 79.3 66.4----
2024-05-28 02:48 pmWNW 12.0 15.0----29.83- 77.4 66.4----
2024-05-28 02:42 pm NW 12.0 14.0----29.83- 77.0 66.6----
2024-05-28 02:36 pmNNW 7.0 8.0----29.83- 75.6 66.2----
2024-05-28 02:30 pm N 5.1 8.0----29.83- 75.2 66.2----
2024-05-28 02:24 pm N 2.9 7.0----29.84- 75.6 66.0----
2024-05-28 02:18 pm N 2.9 4.1----29.84- 75.6 66.2----
2024-05-28 02:12 pmNNE 2.9 6.0----29.84- 74.8 66.4----
2024-05-28 02:06 pm N 5.1 6.0----29.84- 73.9 66.2----
2024-05-28 02:00 pmNNE 5.1 7.0----29.85-0.01 73.4 66.2----
2024-05-28 01:54 pmNNE 6.0 8.0----29.85- 72.9 66.4----
2024-05-28 01:48 pmNNE 5.1 7.0----29.85- 73.2 66.4----
2024-05-28 01:42 pmNNE 6.0 7.0----29.85- 73.8 66.6----
2024-05-28 01:36 pmNNE 5.1 7.0----29.85- 73.2 66.9----
2024-05-28 01:30 pm NE 4.1 6.0----29.85- 73.9 66.9----
2024-05-28 01:24 pmNNE 5.1 6.0----29.85- 73.6 66.9----
2024-05-28 01:18 pmENE 2.9 4.1----29.85- 72.7 66.9----
2024-05-28 01:12 pmENE 1.9 4.1----29.85- 72.0 67.1----
2024-05-28 01:06 pm NE 2.9 5.1----29.85- 72.1 67.3----
2024-05-28 01:00 pmENE 4.1 6.0----29.85+0.01 72.3 67.3----
2024-05-28 12:54 pm NE 4.1 5.1----29.86- 72.1 67.3----
2024-05-28 12:48 pm NE 2.9 4.1----29.86- 72.7 67.1----
2024-05-28 12:42 pmENE 1.9 2.9----29.86- 72.5 66.9----
2024-05-28 12:36 pmNNE 2.9 5.1----29.86- 72.7 66.9----
2024-05-28 12:30 pm N 4.1 5.1----29.86- 72.3 66.7----
2024-05-28 12:24 pmNNE 4.1 4.1----29.86- 71.8 66.7----
2024-05-28 12:18 pm N 2.9 5.1----29.86- 71.4 66.6----
2024-05-28 12:12 pm N 4.1 6.0----29.85- 71.6 66.6----
2024-05-28 12:06 pm N 5.1 7.0----29.86- 71.2 66.6----
2024-05-28 12:00 pm N 6.0 7.0----29.86+0.04 71.6 66.6----
2024-05-28 11:54 am N 5.1 8.0----29.86- 72.9 66.6----
2024-05-28 11:48 am N 6.0 7.0----29.86- 70.5 66.6----
2024-05-28 11:42 amNNW 7.0 11.1----29.86- 71.6 66.4----
2024-05-28 11:36 amNNW 8.0 11.1----29.86- 71.4 66.2----
2024-05-28 11:30 amNNW 9.9 12.0----29.86- 72.0 65.8----
2024-05-28 11:24 am NW 9.9 12.0----29.86- 71.8 65.7----
2024-05-28 11:18 am NW 11.1 12.0----29.86- 71.2 65.3----
2024-05-28 11:12 am NW 9.9 13.0----29.86- 71.2 65.3----
2024-05-28 11:06 am NW 12.0 14.0----29.85- 71.6 65.3----
2024-05-28 11:00 am NW 12.0 15.0----29.86+0.05 71.1 65.1----
2024-05-28 10:54 amNNW 5.1 9.9----29.85- 71.6 64.9----
2024-05-28 10:48 amNNW 8.0 9.9----29.86- 70.3 64.8----
2024-05-28 10:42 amNNW 9.9 12.0----29.85- 70.7 64.6----
2024-05-28 10:36 amNNW 11.1 12.0----29.85- 70.5 64.6----
2024-05-28 10:30 amNNW 11.1 14.0----29.85- 70.5 63.9----
2024-05-28 10:24 amNNW 13.0 18.1----29.85- 70.9 63.3----
2024-05-28 10:18 am NW 15.9 18.1----29.85- 71.1 63.3----
2024-05-28 10:12 am NW 13.0 15.0----29.84- 70.7 63.5----
2024-05-28 10:06 am NW 13.0 15.0----29.84- 70.5 63.5----
2024-05-28 10:00 am NW 12.0 14.0----29.84+0.04 70.5 63.1----
2024-05-28 09:54 am NW 14.0 15.9----29.84- 70.5 62.8----
2024-05-28 09:48 amNNW 11.1 14.0----29.84- 70.2 62.6----
2024-05-28 09:42 am NW 11.1 14.0----29.83- 70.0 62.8----
2024-05-28 09:36 am NW 14.0 18.1----29.83- 70.2 62.4----
2024-05-28 09:30 am NW 14.0 18.1----29.83- 70.2 62.2----
2024-05-28 09:24 amNNW 14.0 18.1----29.83- 70.3 62.6----
2024-05-28 09:18 am NW 18.1 22.9----29.83- 70.5 62.6----
2024-05-28 09:12 am NW 20.0 22.9----29.83- 70.9 62.8----
2024-05-28 09:06 am NW 19.0 25.1----29.83- 70.7 62.8----
2024-05-28 09:00 am NW 19.0 22.0----29.82+0.04 71.1 62.6----
2024-05-28 08:54 am NW 15.9 20.0----29.82- 70.9 62.4----
2024-05-28 08:48 am NW 20.0 22.0----29.82- 71.4 62.6----
2024-05-28 08:42 am NW 18.1 22.0----29.82- 71.1 62.8----
2024-05-28 08:36 am NW 15.9 19.0----29.82- 70.9 62.6----
2024-05-28 08:30 am NW 18.1 20.0----29.81- 71.1 62.2----
2024-05-28 08:24 am NW 14.0 18.1----29.82- 70.7 62.2----
2024-05-28 08:18 amNNW 8.0 18.1----29.82- 71.1 62.1----
2024-05-28 08:12 amWNW 15.9 18.1----29.82- 70.9 62.1----
2024-05-28 08:06 amWNW 14.0 15.9----29.81- 70.3 62.1----
2024-05-28 08:00 amWNW 12.0 15.0----29.81+0.05 70.5 62.1----
2024-05-28 07:54 amWNW 11.1 14.0----29.81- 70.9 62.1----
2024-05-28 07:48 amWNW 8.9 13.0----29.81- 70.3 62.1----
2024-05-28 07:42 amWNW 8.9 13.0----29.81- 70.5 62.1----
2024-05-28 07:36 amWNW 11.1 13.0----29.81- 70.9 62.1----
2024-05-28 07:30 am W 11.1 13.0----29.81- 70.9 62.1----
2024-05-28 07:24 am W 11.1 13.0----29.81- 70.9 62.1----
2024-05-28 07:18 am W 9.9 13.0----29.81- 71.2 62.1----
2024-05-28 07:12 am W 11.1 14.0----29.81- 71.1 62.1----
2024-05-28 07:06 am W 11.1 18.1----29.81- 71.2 61.9----
2024-05-28 07:00 am W 9.9 13.0----29.81+0.06 71.1 61.9----
2024-05-28 06:54 am W 8.0 12.0----29.80- 70.3 61.9----
2024-05-28 06:48 am W 8.0 11.1----29.80- 69.8 61.9----
2024-05-28 06:42 am W 8.0 11.1----29.80- 70.0 61.9----
2024-05-28 06:36 am W 8.9 13.0----29.80- 69.6 61.9----
2024-05-28 06:30 amWSW 8.0 9.9----29.80- 69.3 61.9----
2024-05-28 06:24 amWSW 7.0 11.1----29.80- 68.9 61.9----
2024-05-28 06:18 amWSW 7.0 11.1----29.80- 68.7 61.9----
2024-05-28 06:12 am SW 8.0 12.0----29.79- 68.9 61.9----
2024-05-28 06:06 amWSW 7.0 11.1----29.79- 68.7 61.7----
2024-05-28 06:00 amWSW 7.0 9.9----29.79+0.04 68.7 61.7----
2024-05-28 05:54 amWSW 7.0 9.9----29.78- 68.7 61.9----
2024-05-28 05:48 amWSW 7.0 11.1----29.78- 68.7 61.9----
2024-05-28 05:42 amWSW 8.0 12.0----29.77- 68.7 61.9----
2024-05-28 05:36 amWSW 7.0 8.9----29.77- 68.5 61.9----
2024-05-28 05:30 am SW 7.0 9.9----29.77- 68.7 61.9----
2024-05-28 05:24 amWSW 6.0 8.9----29.77- 68.5 62.1----
2024-05-28 05:18 amWSW 7.0 8.9----29.76- 68.7 61.9----
2024-05-28 05:12 am SW 7.0 9.9----29.76- 68.7 61.9----
2024-05-28 05:06 am SW 7.0 11.1----29.76- 68.7 61.9----
2024-05-28 05:00 am SW 7.0 11.1----29.76+0.01 68.5 61.9----
2024-05-28 04:54 am SW 8.0 9.9----29.76- 68.7 61.9----
2024-05-28 04:48 amWSW 8.0 11.1----29.75- 68.7 62.1----
2024-05-28 04:42 amWSW 7.0 9.9----29.75- 68.5 62.2----
2024-05-28 04:36 amWSW 7.0 9.9----29.75- 68.5 62.2----
2024-05-28 04:30 am SW 8.0 11.1----29.75- 68.5 62.2----
2024-05-28 04:24 am SW 7.0 9.9----29.74- 68.5 62.4----
2024-05-28 04:18 am SW 7.0 11.1----29.74- 68.5 62.6----
2024-05-28 04:12 am SW 8.0 9.9----29.74- 68.5 62.8----
2024-05-28 04:06 am SW 7.0 9.9----29.74- 68.4 62.8----
2024-05-28 04:00 am SW 7.0 11.1----29.74+0.00 68.5 63.0----
2024-05-28 03:54 am SW 8.0 11.1----29.74- 68.7 63.1----